Temperature
-1 -1 -2 -1 -2 -2 -2 -0 1 2 1 1 0 -1 -2 -3 -4 -4 -4 -4 -4 -4 -4 -4 -4 -4 -4 -4 -4 -4 -4 -4 -4 -4 -4 -4 -4 -4 -4 -4 -4 -4 -4 -4
-2 -2 -3 -2 -2 -2 -2 -2 -1 -1 -1 -0 -2 -3 -3 -4 -4 -4 -4 -5 -5 -5 -5 -5 -5 -5 -5 -5 -5 -5 -5 -5 -5 -5 -5 -5 -5 -5 -5 -5 -5 -5 -5 -4
0 -2 -3 -0 -1 -2 -2 -3 -2 -1 -0 -2 -3 -3 -4 -4 -4 -5 -5 -5 -5 -5 -5 -5 -5 -5 -5 -5 -5 -5 -5 -5 -5 -5 -5 -5 -5 -5 -5 -5 -5 -5 -5 -5
-1 -2 -0 1 -3 -3 -3 -3 -3 -3 -3 -3 -3 -4 -4 -4 -4 -5 -5 -6 -6 -6 -6 -6 -6 -6 -6 -6 -6 -6 -6 -6 -6 -6 -6 -6 -6 -6 -6 -6 -6 -6 -6 -5
-2 -1 1 0 -3 -4 -4 -3 -4 -4 -4 -4 -5 -5 -4 -4 -5 -5 -6 -6 -6 -6 -6 -6 -6 -6 -6 -6 -6 -6 -6 -6 -6 -7 -6 -6 -6 -6 -6 -6 -6 -6 -6 -6
-3 -1 0 1 -4 -6 -4 -2 -3 -5 -5 -5 -6 -3 -2 -5 -5 -6 -6 -6 -7 -7 -7 -7 -7 -7 -7 -7 -7 -7 -7 -7 -7 -7 -7 -7 -7 -7 -7 -7 -7 -7 -6 -6
-3 -2 -0 -2 -6 -5 -2 -1 -4 -5 -5 -6 -5 -4 -5 -6 -6 -6 -7 -7 -7 -7 -7 -7 -7 -7 -7 -7 -7 -7 -7 -7 -7 -7 -7 -7 -7 -7 -7 -7 -7 -7 -7 -7
-4 -3 -1 -5 -6 -4 -2 -5 -5 -6 -6 -6 -6 -6 -6 -6 -7 -7 -7 -7 -8 -8 -8 -8 -8 -8 -8 -8 -8 -8 -8 -8 -8 -8 -8 -8 -8 -8 -8 -8 -8 -7 -7 -7
-3 -1 -3 -6 -5 -5 -5 -5 -6 -6 -6 -7 -7 -7 -7 -7 -7 -8 -8 -8 -8 -8 -8 -8 -8 -8 -8 -8 -8 -8 -8 -8 -8 -8 -8 -8 -8 -8 -8 -8 -8 -8 -8 -8
-5 -4 -5 -6 -5 -5 -5 -6 -6 -6 -7 -7 -7 -7 -8 -8 -8 -8 -8 -8 -9 -9 -9 -9 -9 -9 -9 -9 -9 -9 -9 -9 -9 -8 -8 -8 -8 -9 -9 -9 -9 -8 -8 -8
-5 -5 -5 -5 -5 -5 -6 -6 -6 -7 -7 -7 -8 -8 -8 -8 -8 -9 -9 -9 -9 -9 -9 -9 -9 -9 -9 -9 -9 -9 -9 -9 -9 -9 -9 -9 -9 -9 -9 -9 -9 -9 -9 -9
-3 -4 -5 -5 -5 -6 -6 -6 -7 -7 -7 -8 -8 -8 -8 -8 -9 -9 -9 -9 -9 -9 -9 -9 -10 -10 -9 -9 -10 -10 -10 -10 -10 -9 -9 -9 -9 -9 -9 -9 -9 -9 -9 -9
-5 -5 -6 -6 -6 -6 -7 -7 -7 -7 -8 -8 -8 -8 -9 -9 -9 -9 -9 -10 -10 -10 -10 -10 -10 -10 -10 -10 -10 -10 -10 -10 -10 -10 -10 -10 -10 -10 -10 -9 -9 -9 -9 -9
-6 -6 -7 -7 -7 -7 -7 -7 -8 -8 -8 -9 -9 -9 -9 -9 -9 -10 -10 -10 -10 -10 -10 -10 -10 -10 -10 -10 -10 -10 -11 -10 -10 -10 -10 -10 -10 -10 -10 -10 -10 -9 -9 -9
-7 -7 -7 -8 -8 -8 -8 -8 -8 -9 -9 -9 -9 -9 -9 -10 -10 -10 -10 -10 -11 -11 -11 -11 -11 -11 -11 -11 -11 -11 -11 -11 -11 -11 -11 -11 -10 -10 -10 -10 -10 -10 -10 -9
-7 -8 -8 -8 -8 -9 -9 -9 -9 -9 -9 -9 -10 -10 -10 -10 -10 -11 -11 -11 -11 -11 -11 -11 -11 -11 -11 -11 -11 -11 -11 -11 -11 -11 -11 -11 -11 -11 -11 -11 -11 -11 -11 -11
-8 -9 -9 -9 -9 -9 -9 -9 -9 -9 -10 -10 -10 -10 -10 -11 -11 -11 -11 -11 -11 -11 -11 -11 -12 -12 -12 -12 -12 -12 -12 -12 -12 -12 -12 -12 -12 -12 -12 -12 -12 -12 -11 -11
-8 -8 -8 -9 -9 -9 -9 -9 -10 -10 -10 -10 -10 -11 -11 -11 -11 -11 -11 -12 -12 -12 -12 -12 -12 -12 -12 -12 -12 -12 -12 -12 -12 -12 -12 -12 -12 -12 -12 -12 -12 -12 -12 -12
-8 -8 -9 -9 -9 -9 -9 -10 -10 -10 -10 -11 -11 -11 -11 -11 -11 -12 -12 -12 -12 -12 -12 -12 -12 -12 -12 -13 -13 -13 -13 -13 -13 -13 -13 -13 -13 -13 -13 -13 -13 -13 -13 -13
-9 -9 -9 -9 -9 -10 -10 -10 -10 -10 -11 -11 -11 -11 -11 -12 -12 -12 -12 -12 -12 -13 -13 -13 -13 -13 -13 -13 -13 -13 -13 -13 -13 -13 -13 -13 -13 -13 -13 -13 -13 -13 -13 -13
-9 -9 -9 -9 -10 -10 -10 -10 -11 -11 -11 -11 -12 -12 -12 -12 -12 -12 -12 -12 -13 -13 -13 -13 -13 -13 -13 -13 -13 -13 -14 -14 -14 -14 -14 -14 -14 -13 -13 -13 -13 -13 -13 -13
-10 -10 -10 -10 -10 -10 -11 -11 -11 -11 -12 -12 -12 -12 -12 -12 -13 -13 -13 -13 -13 -13 -13 -13 -13 -13 -14 -14 -14 -14 -14 -14 -14 -14 -14 -14 -14 -14 -14 -14 -14 -14 -14 -14
-10 -10 -10 -10 -11 -11 -11 -11 -12 -12 -12 -12 -12 -13 -13 -13 -13 -13 -13 -13 -13 -13 -13 -13 -14 -14 -14 -14 -14 -14 -14 -14 -14 -14 -14 -14 -14 -14 -14 -14 -14 -14 -14 -14
-11 -11 -11 -11 -11 -11 -12 -12 -12 -12 -12 -13 -13 -13 -13 -13 -13 -13 -13 -13 -14 -14 -14 -14 -14 -14 -14 -14 -14 -14 -14 -15 -15 -15 -15 -15 -15 -15 -15 -15 -15 -15 -14 -14
-11 -11 -11 -11 -12 -12 -12 -12 -12 -13 -13 -13 -13 -13 -14 -14 -14 -14 -14 -14 -14 -14 -14 -14 -14 -14 -14 -14 -15 -15 -15 -15 -15 -15 -15 -15 -15 -15 -15 -15 -15 -15 -15 -14
-11 -12 -12 -12 -12 -12 -13 -13 -13 -13 -13 -13 -13 -14 -14 -14 -14 -14 -14 -14 -14 -14 -14 -14 -14 -14 -15 -15 -15 -15 -15 -15 -15 -15 -15 -15 -15 -15 -15 -15 -15 -15 -15 -15
-12 -12 -12 -12 -13 -13 -13 -13 -13 -13 -14 -14 -14 -14 -14 -14 -14 -15 -15 -15 -15 -15 -15 -15 -15 -15 -15 -15 -15 -15 -15 -15 -15 -15 -15 -15 -15 -15 -15 -15 -15 -15 -15 -15
Wind_Speed
8 7 5 7 9 10 13 13 11 11 12 13 9 7 7 6 5 6 6 5 5 5 6 6 6 6 6 6 6 6 6 7 7 7 7 7 7 7 7 6 6 6 6 7
5 4 5 9 12 13 14 13 15 15 15 10 6 4 5 6 5 6 6 6 6 6 6 6 6 6 6 6 6 6 6 7 7 6 6 7 6 6 6 6 6 6 6 6
5 3 5 9 9 12 9 10 10 13 11 4 5 6 6 6 5 6 6 6 6 6 6 6 6 6 6 6 6 6 6 6 6 6 6 6 6 6 6 6 6 6 6 6
3 2 7 3 2 6 8 9 11 9 7 6 7 7 6 6 5 5 6 6 6 6 6 6 6 6 6 6 6 6 6 6 6 6 6 6 6 6 6 6 6 6 6 7
3 4 8 5 3 4 6 7 8 11 9 7 4 5 5 4 4 5 5 6 6 5 5 5 6 6 5 6 6 6 6 6 7 6 7 7 6 6 6 6 6 6 7 7
4 5 6 2 3 2 2 5 3 6 7 5 2 5 5 1 4 5 5 5 5 4 5 5 5 5 5 6 6 6 6 7 7 7 7 7 7 7 6 6 7 7 7 7
7 7 8 1 3 4 4 3 1 3 4 4 5 6 4 4 5 5 5 5 4 4 4 5 5 4 5 6 6 7 7 7 7 7 7 7 7 6 6 6 6 6 7 6
6 7 7 4 6 6 3 2 2 3 4 5 6 6 5 5 5 5 4 4 4 4 5 5 5 4 6 6 7 6 6 7 7 7 6 5 6 6 6 6 6 6 6 6
8 6 2 6 5 3 2 3 4 4 5 5 6 6 6 5 5 5 4 4 4 4 5 5 5 5 6 7 7 6 6 7 7 7 5 5 5 5 5 5 4 5 5 5
6 8 6 6 6 5 5 5 5 5 5 5 6 6 6 5 5 4 4 4 4 4 5 6 6 6 6 6 6 6 6 6 6 6 4 4 3 4 4 4 4 5 5 5
7 7 6 5 7 6 4 4 4 4 4 5 5 5 5 5 5 4 4 4 4 4 5 6 7 7 6 6 5 5 6 6 6 5 4 3 3 3 4 4 5 6 5 5
6 4 4 4 3 3 4 4 4 3 4 4 4 5 4 4 4 4 4 4 4 5 5 6 6 6 6 6 5 5 5 5 5 4 3 3 4 4 5 5 7 8 8 7
5 3 3 4 3 2 3 3 3 3 3 4 3 3 3 3 4 4 4 4 5 5 5 6 6 6 6 6 5 5 5 5 5 4 3 3 4 4 4 5 6 7 7 8
5 3 3 3 3 2 2 2 2 2 2 2 2 2 2 3 3 4 4 5 5 5 5 6 6 7 7 6 6 5 5 6 5 4 3 3 4 4 4 4 5 5 6 7
5 4 4 3 2 2 1 1 2 2 2 2 2 2 3 3 3 4 4 4 4 5 5 6 6 7 7 6 6 6 5 4 4 4 4 4 4 3 3 4 4 5 5 5
2 2 2 2 2 2 1 1 2 2 2 2 2 3 3 3 3 4 4 4 4 5 6 6 6 7 7 6 6 5 5 6 6 5 4 4 4 4 4 4 4 4 5 5
2 2 2 3 3 3 2 3 3 3 3 3 3 3 3 3 3 4 4 4 4 5 5 6 6 7 6 6 6 5 5 5 7 5 4 4 4 4 4 4 4 5 5 6
4 4 4 3 3 3 3 2 2 2 2 3 3 2 2 3 3 4 4 4 4 5 6 6 6 6 6 6 5 5 4 4 4 4 4 4 4 4 4 4 5 6 5 6
1 1 1 1 2 2 2 2 2 2 2 2 2 2 3 3 4 4 4 4 4 5 6 6 8 6 6 6 6 4 4 5 5 5 4 6 5 4 4 5 5 5 6 6
1 1 1 0 0 0 1 1 1 1 1 2 2 2 3 3 3 4 4 4 4 4 5 6 6 5 6 6 6 4 4 4 5 5 5 4 5 5 5 5 5 6 6 6
0 1 1 1 1 1 1 1 1 2 2 1 2 3 3 4 3 3 3 4 5 5 5 6 5 5 5 5 6 4 4 4 4 4 4 5 5 5 5 5 5 6 6 6
0 0 0 0 0 1 1 1 1 1 1 2 2 3 3 4 4 4 4 4 5 7 5 4 4 6 6 7 4 4 4 4 4 4 4 4 4 5 5 6 6 6 6 6
0 0 0 0 0 1 1 1 1 1 2 2 3 3 3 4 3 3 4 4 4 7 5 5 7 8 9 5 4 4 4 5 5 5 5 5 5 5 6 6 6 6 6 6
0 0 0 0 1 1 1 2 2 2 2 3 3 3 3 3 3 3 4 6 8 8 5 6 9 9 8 4 4 4 5 5 5 5 5 5 5 5 6 6 6 6 7 8
0 0 0 1 0 1 2 2 2 2 2 2 3 3 3 3 4 5 5 5 7 7 5 7 9 9 6 5 5 5 5 5 6 6 5 5 6 6 6 6 6 7 7 7
0 0 0 0 1 1 1 1 2 2 2 3 3 3 3 3 4 4 4 5 6 7 6 5 6 6 5 5 6 6 6 6 7 6 6 6 6 7 6 7 8 7 7 8
1 1 1 1 1 1 1 1 2 3 3 3 4 4 4 4 4 4 5 5 5 5 5 5 5 5 5 6 6 6 6 6 6 6 6 6 6 6 7 8 8 8 8 8
Wind_Direction
263 273 261 251 239 217 219 230 242 254 258 273 275 270 272 276 284 287 290 293 296 299 304 308 306 301 298 298 303 303 297 294 293 294 293 291 290 289 288 287 287 286 285 285
266 251 260 266 252 232 233 239 245 260 269 272 284 270 265 271 278 285 288 289 294 296 297 300 301 303 301 301 305 302 295 295 298 299 297 294 291 289 289 290 290 288 285 285
261 292 286 264 237 215 218 221 224 241 256 273 271 266 262 267 272 276 283 289 290 290 290 294 297 300 301 298 301 298 295 296 297 298 298 297 295 290 288 287 287 285 286 286
271 292 253 263 104 205 222 241 228 242 260 261 268 280 274 260 257 270 281 287 289 291 295 301 301 299 300 299 295 292 294 297 300 300 296 296 290 285 285 286 283 282 283 284
228 258 274 276 197 189 216 261 231 235 252 272 303 294 271 242 254 277 282 286 286 288 294 298 299 303 303 300 296 292 293 297 299 296 292 292 285 284 285 283 283 282 282 282
214 242 255 285 124 150 193 266 213 222 246 258 251 268 282 273 290 295 294 293 295 299 300 297 302 307 301 298 297 295 297 297 297 293 288 286 281 281 283 281 280 283 282 282
223 241 265 291 140 161 213 296 343 234 241 232 238 265 294 292 292 292 293 298 303 302 299 299 305 304 297 299 299 302 302 301 299 295 288 281 278 278 280 280 280 281 282 283
200 222 254 147 152 198 256 344 284 268 258 254 267 283 289 288 287 291 297 302 302 301 305 308 308 302 299 300 304 306 305 304 302 298 290 280 278 280 279 276 277 279 281 285
205 226 298 173 205 241 273 273 280 279 275 265 271 278 285 287 286 286 290 294 297 299 307 312 313 305 299 305 310 309 308 307 306 304 290 281 277 276 277 273 273 277 281 286
250 261 259 237 249 263 270 274 282 278 270 261 266 274 280 282 284 286 290 292 296 300 306 312 315 312 305 307 308 308 308 310 309 306 301 298 289 274 273 271 272 276 283 288
253 272 287 253 247 257 266 281 290 288 276 265 269 274 278 278 279 283 290 296 296 297 303 308 313 313 314 314 312 311 312 312 312 306 301 302 298 290 281 278 277 280 282 286
248 255 245 276 283 252 250 264 271 280 288 284 272 272 278 279 281 284 288 297 300 304 305 309 312 313 316 318 313 309 309 311 311 308 304 298 300 304 304 300 305 305 302 297
265 299 275 284 297 274 252 270 284 281 282 288 290 280 277 286 292 294 296 300 300 304 308 310 312 313 318 318 312 304 303 308 309 307 305 300 297 300 306 311 315 314 315 314
253 268 274 273 294 305 287 305 321 322 315 308 308 310 305 303 304 303 305 309 310 311 312 313 313 315 319 319 313 309 309 312 315 313 306 299 293 297 301 307 313 317 322 323
255 246 255 288 312 331 333 342 345 330 326 331 332 327 319 309 306 308 316 321 319 320 320 319 317 319 324 322 316 314 315 318 317 317 318 318 316 313 310 306 308 314 321 329
269 250 241 252 269 282 302 304 292 292 301 309 317 317 313 306 308 315 323 324 321 321 324 323 320 324 328 325 321 318 317 323 324 323 325 328 328 324 320 320 323 323 325 326
220 241 242 254 260 264 268 268 266 271 283 291 299 309 312 312 316 319 322 324 320 318 321 322 322 327 328 328 326 322 322 324 328 326 324 323 323 320 321 325 325 322 321 324
230 234 229 232 239 251 266 273 273 276 284 293 302 303 298 298 301 308 316 325 328 326 326 327 329 328 330 332 330 325 324 326 327 325 323 323 321 320 321 321 321 319 320 325
232 225 226 229 234 236 255 271 278 290 301 298 286 283 288 295 301 309 317 323 323 322 328 332 332 334 332 334 331 322 322 326 327 326 324 324 324 322 319 318 317 317 318 322
45 57 62 359 350 271 264 284 291 292 295 293 291 296 302 307 310 309 307 301 300 307 314 322 324 326 329 329 328 321 324 325 325 325 324 322 320 318 317 316 315 315 317 318
39 50 47 32 357 330 300 279 263 274 287 281 275 283 292 302 306 301 299 303 313 319 316 319 324 325 323 322 322 326 328 327 325 322 320 318 317 316 316 316 315 314 314 314
318 47 358 15 354 330 326 309 282 277 288 287 285 290 298 304 306 300 284 283 300 316 318 314 318 322 324 323 324 325 323 322 319 317 316 315 315 315 314 314 312 312 311 311
294 222 222 247 271 311 336 329 303 284 283 285 286 289 290 293 297 297 301 305 306 314 315 311 319 324 327 329 325 319 316 312 310 309 307 306 305 305 306 307 306 306 306 306
31 347 333 29 76 53 345 328 311 297 293 290 289 288 292 300 302 292 288 304 317 317 312 314 323 326 328 325 316 312 308 306 305 304 303 302 301 301 300 300 300 300 300 301
100 107 108 102 90 309 306 320 325 320 317 313 312 309 299 290 290 304 309 306 311 315 311 314 321 324 324 314 310 307 305 302 301 301 298 299 299 299 297 297 297 297 297 296
62 40 314 282 287 303 309 311 314 317 318 317 319 317 316 312 305 304 307 308 307 311 312 309 314 317 314 309 306 305 303 303 304 303 300 297 295 295 294 295 295 294 293 292
48 38 31 9 345 329 316 305 303 307 309 306 308 314 319 317 314 313 313 311 311 312 310 309 309 308 307 306 305 304 302 301 300 299 298 296 294 292 292 292 291 290 289 289
Height
1520 1521 1521 1519 1519 1522 1521 1511 1506 1495 1497 1494 1496 1498 1499 1498 1497 1496 1495 1494 1492 1491 1490 1489 1487 1485 1484 1482 1481 1480 1479 1477 1475 1474 1472 1471 1469 1468 1467 1466 1465 1464 1462 1461
1521 1521 1521 1518 1513 1514 1514 1511 1507 1502 1498 1494 1496 1497 1496 1495 1494 1493 1492 1491 1490 1488 1487 1485 1483 1482 1480 1478 1477 1476 1474 1473 1471 1469 1468 1466 1465 1464 1462 1461 1460 1459 1458 1457
1511 1519 1518 1503 1500 1504 1504 1502 1501 1496 1492 1493 1494 1493 1493 1492 1491 1490 1489 1488 1486 1485 1483 1481 1480 1478 1476 1475 1473 1472 1470 1469 1467 1465 1463 1462 1461 1459 1458 1457 1456 1455 1453 1452
1515 1515 1505 1489 1499 1498 1498 1496 1496 1494 1492 1492 1492 1491 1490 1488 1487 1487 1486 1484 1482 1481 1479 1478 1476 1474 1473 1471 1469 1468 1466 1464 1463 1461 1459 1457 1456 1455 1453 1452 1451 1450 1449 1448
1516 1506 1492 1491 1497 1498 1497 1492 1491 1492 1490 1491 1490 1489 1486 1485 1485 1484 1483 1481 1479 1477 1475 1474 1472 1471 1469 1467 1465 1464 1462 1460 1458 1456 1455 1453 1451 1450 1449 1448 1447 1446 1444 1443
1515 1505 1491 1484 1496 1496 1498 1488 1487 1487 1488 1488 1489 1486 1482 1482 1481 1480 1479 1477 1475 1474 1472 1470 1469 1467 1465 1463 1461 1459 1457 1455 1454 1452 1450 1448 1447 1446 1445 1444 1442 1441 1440 1439
1512 1504 1489 1491 1495 1497 1491 1482 1485 1485 1485 1486 1485 1484 1482 1479 1478 1477 1475 1474 1472 1470 1469 1467 1465 1463 1461 1459 1457 1455 1453 1451 1449 1447 1445 1444 1443 1442 1440 1439 1438 1437 1435 1435
1509 1504 1490 1491 1493 1491 1484 1484 1483 1483 1483 1483 1482 1480 1478 1477 1475 1473 1472 1470 1469 1467 1465 1464 1462 1460 1457 1455 1453 1451 1449 1446 1444 1442 1441 1439 1438 1437 1436 1435 1433 1432 1431 1430
1497 1489 1486 1486 1485 1484 1484 1483 1481 1481 1480 1480 1479 1477 1475 1474 1472 1471 1469 1467 1466 1464 1462 1460 1459 1456 1454 1451 1449 1447 1445 1442 1440 1437 1436 1435 1434 1433 1432 1431 1430 1429 1428 1426
1494 1485 1484 1484 1483 1482 1482 1480 1479 1479 1478 1477 1475 1474 1473 1471 1469 1467 1466 1465 1463 1461 1459 1457 1455 1453 1450 1448 1446 1443 1441 1438 1435 1433 1432 1431 1430 1429 1428 1427 1426 1425 1424 1423
1489 1484 1482 1479 1479 1479 1478 1478 1477 1476 1475 1474 1473 1471 1470 1468 1466 1465 1463 1462 1460 1458 1456 1454 1451 1449 1447 1445 1442 1440 1437 1434 1432 1430 1428 1427 1426 1425 1424 1423 1423 1422 1421 1420
1480 1478 1479 1477 1476 1476 1475 1474 1474 1473 1472 1471 1470 1468 1467 1466 1464 1463 1461 1459 1457 1455 1453 1451 1449 1446 1444 1442 1439 1437 1434 1431 1429 1427 1425 1424 1423 1422 1421 1421 1420 1419 1418 1417
1477 1476 1476 1474 1474 1473 1473 1472 1471 1470 1469 1468 1467 1466 1465 1463 1462 1460 1459 1457 1455 1453 1451 1448 1446 1444 1441 1439 1437 1434 1431 1429 1426 1424 1423 1422 1420 1419 1418 1417 1416 1415 1414 1413
1475 1474 1473 1472 1472 1471 1470 1470 1469 1468 1467 1466 1465 1464 1462 1461 1459 1458 1456 1455 1453 1451 1449 1446 1444 1442 1439 1437 1434 1431 1429 1427 1424 1422 1421 1420 1419 1417 1416 1414 1413 1411 1410 1409
1472 1472 1471 1470 1469 1469 1468 1468 1467 1466 1465 1464 1463 1462 1460 1459 1457 1456 1454 1453 1451 1449 1446 1444 1442 1440 1437 1434 1432 1429 1427 1425 1423 1421 1419 1418 1417 1415 1414 1413 1411 1409 1407 1406
1469 1468 1468 1467 1467 1466 1466 1465 1465 1464 1463 1462 1461 1460 1459 1457 1456 1454 1452 1451 1449 1446 1444 1442 1440 1438 1435 1433 1430 1428 1426 1424 1422 1420 1418 1416 1415 1413 1412 1410 1408 1407 1405 1404
1466 1465 1465 1465 1464 1464 1464 1463 1463 1462 1461 1460 1459 1458 1456 1455 1453 1452 1450 1448 1447 1445 1443 1440 1438 1436 1434 1432 1429 1427 1424 1422 1420 1418 1417 1415 1413 1412 1410 1408 1407 1405 1404 1402
1464 1464 1463 1463 1462 1462 1462 1461 1461 1460 1459 1458 1457 1455 1454 1453 1451 1449 1448 1446 1444 1443 1441 1439 1437 1434 1432 1430 1428 1426 1423 1421 1419 1417 1416 1414 1412 1410 1409 1407 1405 1404 1402 1400
1462 1462 1462 1462 1461 1461 1460 1460 1459 1458 1457 1456 1455 1453 1452 1451 1449 1448 1446 1444 1442 1440 1439 1437 1435 1433 1431 1429 1427 1424 1422 1420 1418 1416 1414 1413 1411 1409 1408 1406 1404 1402 1400 1398
1461 1461 1460 1460 1460 1459 1459 1458 1457 1456 1455 1454 1453 1451 1450 1449 1447 1446 1444 1442 1440 1439 1437 1435 1433 1431 1429 1427 1425 1423 1421 1419 1417 1415 1413 1411 1410 1408 1406 1405 1403 1401 1399 1397
1460 1459 1459 1459 1458 1458 1457 1456 1455 1454 1454 1452 1451 1450 1448 1447 1445 1444 1442 1440 1439 1437 1435 1434 1432 1430 1428 1426 1424 1422 1420 1418 1416 1414 1412 1410 1408 1406 1405 1403 1401 1399 1397 1395
1459 1458 1458 1457 1456 1456 1455 1455 1454 1453 1452 1451 1449 1448 1447 1445 1444 1442 1440 1439 1437 1435 1433 1432 1430 1428 1426 1424 1422 1420 1418 1416 1414 1412 1410 1408 1406 1404 1402 1400 1399 1397 1395 1393
1457 1457 1456 1456 1455 1454 1454 1453 1452 1451 1450 1449 1448 1446 1445 1443 1442 1440 1438 1437 1435 1433 1431 1430 1428 1426 1424 1422 1420 1418 1416 1414 1412 1410 1408 1406 1404 1402 1400 1398 1396 1394 1392 1390
1456 1456 1455 1454 1454 1453 1452 1452 1451 1450 1449 1447 1446 1445 1443 1442 1440 1438 1436 1435 1433 1431 1429 1427 1426 1424 1422 1419 1417 1415 1413 1411 1409 1407 1405 1403 1401 1399 1397 1396 1394 1391 1389 1387
1455 1454 1454 1453 1452 1452 1451 1450 1449 1448 1447 1445 1444 1443 1441 1440 1438 1436 1434 1432 1431 1429 1427 1425 1423 1421 1419 1416 1414 1412 1410 1408 1406 1404 1402 1400 1398 1396 1394 1392 1390 1388 1386 1384
1454 1453 1453 1452 1452 1451 1450 1449 1447 1446 1445 1443 1442 1441 1439 1438 1436 1434 1432 1430 1428 1426 1424 1422 1420 1418 1416 1413 1411 1409 1407 1405 1403 1401 1399 1397 1395 1393 1391 1389 1387 1385 1382 1380
1453 1452 1451 1451 1450 1449 1448 1447 1446 1445 1443 1442 1440 1439 1437 1435 1433 1431 1429 1427 1425 1423 1421 1419 1417 1415 1412 1410 1408 1406 1403 1401 1399 1397 1395 1393 1391 1389 1387 1385 1383 1381 1379 1377